[[{"header":{"parameterUnit":"m.s-1","parameterCategory":1,"la1":30.2991,"la2":30.254,"lo1":-89.0895,"lo2":-89.0444,"dy":0.0017,"dx":0.0017,"nx":28,"ny":28,"refTime":"2024-05-27T03:00:00:Z","depth":0,"parameterNumber":2,"parameterNumberName":"U-component_of_WINDS"},"data":[0,0,0,0,0,0,0,0,0,0,0,0,0,0,0,0,0,0,0,0,0,0,0,0,0,0,0,0,0,0,0,0,0,0,0,0,0,0,0,0,0,0,0,0,0,0,0,0,0,0,0,0,0,0,0,0,0,0,1.8244,1.8244,0,1.8249,1.8249,1.8249,1.8197,1.8195,1.8194,1.8192,1.8198,1.8199,1.8201,0,0,0,0,0,0,0,0,0,0,0,0,0,1.819,1.8191,1.8244,1.8244,1.8244,1.8249,1.8249,1.8249,1.8197,1.8195,1.8193,1.8192,1.8197,1.8199,1.8201,0,0,0,0,0,0,0,0,0,0,0,0,0,1.8206,1.8192,1.8244,1.8219,1.8217,1.8249,1.8249,1.8249,1.8197,1.8195,1.8193,1.8191,1.8197,1.8199,1.8201,1.8258,0,0,1.8208,1.8209,0,0,0,0,0,0,0,0,1.8205,1.8208,1.8223,1.8221,1.8218,1.822,1.8232,1.8252,1.8198,1.8205,1.8192,1.819,1.8207,1.8208,1.8214,1.8258,1.8258,1.8208,1.8209,1.821,1.8211,0,0,0,0,0,0,0,1.8204,1.8207,1.8246,1.8223,1.822,1.8207,1.8207,1.8235,1.8218,1.8204,1.82,1.8201,1.8205,1.8212,1.8214,1.8258,1.8208,1.821,1.8211,1.8212,1.8347,1.8349,0,0,0,0,0,0,1.8206,1.8207,1.8246,1.8246,1.8206,1.821,1.821,1.8222,1.8217,1.8215,1.8203,1.8199,1.8209,1.8211,1.8214,1.8278,1.821,1.8212,1.8214,1.8345,1.8348,1.835,0,0,0,0,0,0,1.8205,1.821,1.8246,1.8225,1.8229,1.8213,1.8227,1.8223,1.8229,1.8217,1.8213,1.8213,1.8207,1.821,1.8247,1.8277,1.8213,1.8215,1.8342,1.8346,1.8349,1.8408,0,0,0,0,0,0,1.8204,1.821,1.8232,1.8226,1.823,1.8279,1.8229,1.8224,1.8233,1.8227,1.8225,1.8223,1.8206,1.8244,1.8249,1.8279,1.8217,1.8339,1.8344,1.8348,1.8403,1.8413,1.8422,0,0,0,0,0,1.8202,1.8249,1.8233,1.8238,1.8257,1.8281,1.8283,1.8263,1.8236,1.8257,1.8249,1.8223,1.8274,1.8248,1.8253,1.8285,1.8337,1.8342,1.8347,1.8399,1.8411,1.8421,0,0,0,0,0,0,1.8259,1.8248,1.823,1.8277,1.828,1.8272,1.8298,1.8276,1.8288,1.8282,1.8257,1.8257,1.8297,1.8295,1.8266,1.8338,1.8301,1.8307,1.8338,1.8349,1.8358,1.8357,1.8219,0,0,0,0,0,1.8277,1.8298,1.8287,1.8329,1.8331,1.8315,1.8324,1.8308,1.8311,1.8312,1.8307,1.831,1.8327,1.8338,1.8353,1.8403,1.8401,1.8427,1.8437,1.8444,1.845,1.8474,1.8485,1.8367,1.8367,1.8367,0,0,1.8315,1.8311,1.8326,1.834,1.8341,1.8362,1.8316,1.8341,1.8356,1.8316,1.8349,1.8345,1.8348,1.8391,1.8409,1.839,1.8482,1.8451,1.8457,1.8458,1.8481,1.8492,1.8502,1.837,1.8369,1.8369,0,0,1.8393,1.8393,1.8427,1.8428,1.843,1.8418,1.8426,1.8421,1.8417,1.845,1.8419,1.8437,1.8467,1.8469,1.8474,1.8552,1.8527,1.8557,1.8604,1.8629,1.8638,1.8646,1.8672,1.8682,1.8563,1.8563,1.8563,0,1.844,1.847,1.8447,1.8474,1.848,1.8444,1.8478,1.848,1.8487,1.8492,1.847,1.8505,1.8504,1.8546,1.8565,1.8571,1.8578,1.8557,1.8639,1.8646,1.8654,1.8678,1.8688,1.8567,1.8566,1.8566,1.8566,0,1.8526,1.8548,1.8575,1.8581,1.8591,1.8621,1.8602,1.8615,1.8597,1.8588,1.8621,1.8619,1.8631,1.864,1.8625,1.868,1.8668,1.8643,1.8604,1.8669,1.8691,1.8701,1.8572,1.857,1.8569,1.8569,0,0,1.8641,1.8633,1.8643,1.8644,1.8642,1.8658,1.8686,1.8698,1.8709,1.8714,1.8736,1.8761,1.8738,1.8743,1.8727,1.8749,1.8808,1.8721,1.8721,1.8736,1.8867,1.8885,1.8896,1.8793,1.8795,1.8796,1.8867,0,1.8716,1.8762,1.8742,1.879,1.8809,1.8774,1.8798,1.88,1.8792,1.8806,1.8797,1.8815,1.8783,1.8786,1.8806,1.8797,1.8834,1.8792,1.8812,1.8813,1.8811,1.8908,1.8928,1.8994,1.8876,1.8877,1.8878,0,1.881,1.8818,1.8868,1.886,1.8867,1.8889,1.8897,1.8912,1.8913,1.8905,1.8911,1.8889,1.8916,1.8878,1.8913,1.8885,1.8892,1.8889,1.8891,1.8891,1.8849,1.891,1.9015,1.9025,1.8892,1.8891,1.889,0,1.8886,1.891,1.8942,1.8944,1.8937,1.8953,1.8951,1.8949,1.8957,1.8964,1.8969,1.898,1.8985,1.8994,1.8976,1.895,1.9013,1.8974,1.9007,1.9007,1.902,1.902,1.9127,1.9028,1.9028,1.9027,1.9027,0,1.8971,1.9003,1.8976,1.8995,1.9029,1.9005,1.904,1.9034,1.9032,1.905,1.9022,1.9039,1.9014,1.9029,1.9015,1.9046,1.9049,1.9043,1.9038,1.9045,1.9045,1.9048,1.9042,1.903,1.9029,1.9029,1.9029,0,1.9062,1.9045,1.9078,1.9068,1.9066,1.9092,1.9083,1.9101,1.909,1.9113,1.9117,1.91,1.9116,1.9099,1.9114,1.9105,1.9145,1.9135,1.9145,1.9141,1.9174,1.917,1.9286,1.9299,1.9193,1.9194,1.9195,0,1.9116,1.9139,1.9132,1.9141,1.914,1.9156,1.9163,1.9141,1.915,1.9151,1.9168,1.9181,1.919,1.9217,1.9207,1.9218,1.9206,1.9246,1.9208,1.9213,1.9205,1.9203,1.9205,1.9253,1.9255,1.9256,1.9257,0,1.9214,1.9204,1.9216,1.9224,1.9233,1.9239,1.9242,1.9252,1.9228,1.9239,1.9255,1.9262,1.9276,1.9289,1.9297,1.9294,1.9271,1.9269,1.9277,1.9282,1.9286,1.9283,1.9164,1.9266,1.9265,1.9264,1.9264,1.9264,1.9287,1.9305,1.9302,1.9315,1.9315,1.9319,1.9334,1.9325,1.9337,1.9346,1.9333,1.9351,1.935,1.9357,1.9358,1.9372,1.9355,1.9367,1.9369,1.9372,1.9376,1.9285,1.9373,1.9373,1.9373,1.9373,1.9372,0,1.9382,1.9378,1.939,1.9395,1.9405,1.9382,1.9385,1.9394,1.9411,1.9411,1.9421,1.9437,1.945,1.944,1.945,1.9463,1.9453,1.9466,1.9464,1.9464,1.9392,1.9383,1.9474,1.9474,1.9474,1.9474,1.9474,1.9474,1.9432,1.9461,1.9451,1.9479,1.9475,1.9492,1.9495,1.9498,1.9497,1.9517,1.9527,1.952,1.9516,1.9525,1.9535,1.9532,1.9536,1.9554,1.9547,1.9479,1.9469,1.9459,1.9451,1.9555,1.9555,1.9617,1.9618,1.9618]},{"header":{"parameterUnit":"m.s-1","parameterCategory":1,"la1":30.2991,"la2":30.254,"lo1":-89.0895,"lo2":-89.0444,"dy":0.0017,"dx":0.0017,"nx":28,"ny":28,"refTime":"2024-05-27T03:00:00:Z","depth":0,"parameterNumber":3,"parameterNumberName":"V-component_of_WINDS"},"data":[0,0,0,0,0,0,0,0,0,0,0,0,0,0,0,0,0,0,0,0,0,0,0,0,0,0,0,0,0,0,0,0,0,0,0,0,0,0,0,0,0,0,0,0,0,0,0,0,0,0,0,0,0,0,0,0,0,0,4.3502,4.3502,0,4.3519,4.3519,4.3519,4.3469,4.3468,4.3466,4.3465,4.348,4.3481,4.3483,0,0,0,0,0,0,0,0,0,0,0,0,0,4.3423,4.3425,4.3502,4.3502,4.3502,4.3519,4.3519,4.3519,4.347,4.3468,4.3466,4.3464,4.3479,4.3481,4.3483,0,0,0,0,0,0,0,0,0,0,0,0,0,4.3451,4.3426,4.3502,4.3479,4.3478,4.3518,4.3519,4.3519,4.347,4.3468,4.3466,4.3463,4.3478,4.3481,4.3484,4.3546,0,0,4.3492,4.3493,0,0,0,0,0,0,0,0,4.3449,4.3453,4.3483,4.3481,4.3479,4.349,4.3497,4.3528,4.3471,4.3473,4.3465,4.3462,4.3485,4.3487,4.3495,4.3547,4.3547,4.3492,4.3494,4.3495,4.3496,0,0,0,0,0,0,0,4.3447,4.3452,4.3508,4.3483,4.3481,4.3468,4.3469,4.3502,4.3491,4.3473,4.3469,4.3472,4.3483,4.3492,4.3495,4.3547,4.3492,4.3495,4.3496,4.3497,4.365,4.3652,0,0,0,0,0,0,4.3449,4.3451,4.3508,4.3509,4.3458,4.3471,4.3472,4.3488,4.3491,4.3489,4.3474,4.3469,4.3489,4.3492,4.3495,4.3567,4.3495,4.3498,4.3499,4.3647,4.365,4.3653,0,0,0,0,0,0,4.3447,4.3454,4.3507,4.3479,4.3485,4.3475,4.3493,4.349,4.3499,4.3492,4.3489,4.3485,4.3487,4.3491,4.3534,4.3567,4.3499,4.3501,4.3644,4.3648,4.3652,4.3712,0,0,0,0,0,0,4.3445,4.3454,4.3478,4.348,4.3486,4.3546,4.3495,4.3492,4.3504,4.3499,4.3502,4.35,4.3486,4.353,4.3536,4.3569,4.3503,4.3641,4.3646,4.365,4.3707,4.3717,4.3726,0,0,0,0,0,4.3443,4.3494,4.348,4.3487,4.3517,4.3548,4.3552,4.3535,4.3507,4.3531,4.3526,4.35,4.3563,4.3535,4.3541,4.3576,4.3639,4.3645,4.365,4.3703,4.3715,4.3726,0,0,0,0,0,0,4.3496,4.3494,4.3478,4.3532,4.3541,4.354,4.3569,4.3549,4.3565,4.3559,4.3537,4.3538,4.3584,4.3584,4.3553,4.3636,4.3596,4.3603,4.3634,4.3646,4.3655,4.3653,4.3506,0,0,0,0,0,4.3514,4.3541,4.3537,4.3585,4.359,4.3579,4.3592,4.3579,4.3586,4.359,4.3588,4.3596,4.3617,4.3631,4.3651,4.3707,4.3706,4.3734,4.3744,4.3752,4.3758,4.3787,4.3799,4.3671,4.3671,4.3671,0,0,4.3551,4.3554,4.3572,4.3596,4.3601,4.3628,4.3583,4.3613,4.3633,4.3594,4.3634,4.3633,4.364,4.369,4.3711,4.3691,4.3793,4.3759,4.3765,4.3767,4.3794,4.3806,4.3816,4.3675,4.3674,4.3673,0,0,4.3633,4.3638,4.3678,4.3684,4.3693,4.3685,4.3695,4.3697,4.3695,4.3735,4.3707,4.3729,4.3766,4.3772,4.378,4.3865,4.3841,4.3872,4.3921,4.395,4.396,4.3968,4.3997,4.4008,4.3878,4.3878,4.3878,0,4.3678,4.3718,4.3701,4.3734,4.3745,4.3712,4.3751,4.3758,4.3772,4.378,4.3758,4.3804,4.3806,4.3856,4.3877,4.3885,4.3894,4.3871,4.396,4.3968,4.3976,4.4004,4.4015,4.3882,4.3881,4.3881,4.388,0,4.3773,4.3801,4.3832,4.3848,4.3862,4.3899,4.3885,4.3902,4.3887,4.3882,4.3922,4.3924,4.3943,4.3954,4.3939,4.4002,4.3989,4.3964,4.3923,4.3992,4.4018,4.4028,4.3887,4.3885,4.3884,4.3883,0,0,4.3888,4.3893,4.3905,4.3911,4.3918,4.394,4.3974,4.3993,4.4007,4.4018,4.4045,4.4078,4.4055,4.4064,4.405,4.4075,4.414,4.4046,4.4046,4.4063,4.4208,4.4226,4.4238,4.4125,4.4127,4.4129,4.4207,0,4.3967,4.4027,4.4012,4.407,4.4096,4.4065,4.4095,4.4102,4.4098,4.4118,4.4112,4.4136,4.4104,4.4109,4.4132,4.4127,4.4169,4.4122,4.4149,4.415,4.4147,4.4252,4.4271,4.4345,4.4217,4.4218,4.422,0,4.4068,4.4084,4.4145,4.4148,4.4158,4.4185,4.4201,4.4221,4.4228,4.4223,4.4234,4.4214,4.4247,4.4207,4.4251,4.422,4.423,4.4229,4.4232,4.4233,4.4188,4.4254,4.4368,4.4379,4.4235,4.4234,4.4233,0,4.4144,4.4181,4.4222,4.4228,4.4233,4.4252,4.4255,4.426,4.4272,4.4286,4.4293,4.4311,4.432,4.4334,4.4319,4.4292,4.4365,4.4324,4.4361,4.4361,4.4377,4.4376,4.4492,4.4386,4.4385,4.4385,4.4385,0,4.4234,4.4272,4.4256,4.4281,4.4323,4.4305,4.4347,4.4346,4.4351,4.4374,4.4349,4.4371,4.4352,4.4372,4.4361,4.4399,4.4404,4.44,4.4396,4.4401,4.4402,4.4407,4.4401,4.4388,4.4388,4.4387,4.4386,0,4.4326,4.4317,4.4359,4.436,4.4361,4.4392,4.4392,4.4415,4.4409,4.4439,4.4445,4.4436,4.4459,4.4446,4.447,4.4462,4.4511,4.4501,4.4508,4.4505,4.4542,4.4538,4.4665,4.468,4.4565,4.4566,4.4567,0,4.4383,4.4412,4.4416,4.4431,4.4435,4.4459,4.4472,4.4455,4.4469,4.4479,4.4501,4.4522,4.4537,4.4575,4.457,4.4587,4.4577,4.462,4.4579,4.4584,4.4576,4.4574,4.4577,4.4628,4.4629,4.4631,4.4631,0,4.4486,4.448,4.4499,4.4517,4.4533,4.4546,4.4557,4.457,4.4554,4.4571,4.4595,4.4607,4.4631,4.4652,4.4667,4.4668,4.4647,4.4645,4.4654,4.4659,4.4662,4.466,4.453,4.4641,4.464,4.464,4.4639,4.4639,4.4561,4.4585,4.4592,4.4614,4.4621,4.4632,4.4653,4.465,4.467,4.4688,4.4678,4.4705,4.4711,4.4729,4.4733,4.4754,4.4736,4.475,4.4753,4.4756,4.4761,4.466,4.4757,4.4756,4.4756,4.4756,4.4756,0,4.4661,4.4664,4.4685,4.4701,4.4719,4.4699,4.4709,4.4725,4.475,4.4757,4.4774,4.48,4.482,4.4817,4.4835,4.4852,4.4842,4.4857,4.4855,4.4855,4.4776,4.4766,4.4864,4.4864,4.4864,4.4864,4.4864,4.4864,4.4715,4.4754,4.4749,4.4791,4.4793,4.4821,4.4828,4.4838,4.4844,4.4875,4.4892,4.489,4.4893,4.4911,4.4928,4.4926,4.4933,4.4951,4.4946,4.4872,4.4861,4.4851,4.4841,4.4953,4.4954,4.5023,4.5024,4.5025]}]]